[[{"header":{"parameterUnit":"m.s-1","parameterCategory":1,"la1":30.2991,"la2":30.254,"lo1":-89.0895,"lo2":-89.0444,"dy":0.0017,"dx":0.0017,"nx":28,"ny":28,"refTime":"2026-01-29T09:00:00:Z","depth":0,"parameterNumber":2,"parameterNumberName":"U-component_of_WINDS"},"data":[0,0,0,0,0,0,0,0,0,0,0,0,0,0,0,0,0,0,0,0,0,0,0,0,0,0,0,0,0,0,0,0,0,0,0,0,0,0,0,0,0,0,0,0,0,0,0,0,0,0,0,0,0,0,0,0,0,0,0.9652,0.9653,0,0.973,0.9731,0.9732,0.9824,0.9825,0.9826,0.9828,0.9908,0.9909,0.991,0,0,0,0,0,0,0,0,0,0,0,0,0,0.9581,0.9582,0.9652,0.9653,0.9654,0.973,0.9731,0.9732,0.9823,0.9825,0.9827,0.9828,0.9908,0.9909,0.991,0,0,0,0,0,0,0,0,0,0,0,0,0,0.9631,0.9582,0.9652,0.9708,0.9714,0.973,0.9731,0.9733,0.9823,0.9825,0.9827,0.9829,0.9908,0.9909,0.991,0.9877,0,0,0.9914,0.9915,0,0,0,0,0,0,0,0,0.9628,0.9633,0.9699,0.9704,0.9711,0.9769,0.9736,0.9781,0.9823,0.9782,0.9828,0.983,0.986,0.9866,0.9876,0.988,0.9884,0.9914,0.9915,0.9916,0.9916,0,0,0,0,0,0,0,0.9624,0.963,0.9683,0.97,0.9707,0.973,0.9739,0.9745,0.9808,0.9785,0.9792,0.98,0.9864,0.9874,0.9879,0.9885,0.9914,0.9916,0.9916,0.9917,0.9866,0.9864,0,0,0,0,0,0,0.9612,0.9627,0.968,0.9685,0.9674,0.973,0.974,0.9748,0.9809,0.982,0.9798,0.9804,0.9871,0.9877,0.9882,0.9847,0.9916,0.9917,0.9918,0.9868,0.9866,0.9863,0,0,0,0,0,0,0.961,0.9616,0.9677,0.9658,0.9667,0.9729,0.9737,0.9749,0.9759,0.9819,0.983,0.9797,0.9873,0.988,0.9877,0.9851,0.9918,0.9919,0.9871,0.9867,0.9864,0.9775,0,0,0,0,0,0,0.9608,0.9615,0.9603,0.9657,0.9668,0.9671,0.9736,0.9749,0.9761,0.977,0.9821,0.9831,0.9875,0.9875,0.9878,0.9854,0.992,0.9873,0.9869,0.9865,0.9781,0.9769,0.976,0,0,0,0,0,0.9605,0.9574,0.9601,0.9607,0.9654,0.9669,0.9676,0.9727,0.9759,0.9747,0.9785,0.9829,0.9853,0.9874,0.9879,0.9854,0.9875,0.987,0.9866,0.9786,0.9772,0.976,0,0,0,0,0,0,0.9516,0.9583,0.9613,0.9599,0.9628,0.9685,0.9672,0.9711,0.9731,0.9738,0.9801,0.9812,0.9802,0.9828,0.985,0.9824,0.987,0.9866,0.9808,0.9795,0.9785,0.9779,0.9921,0,0,0,0,0,0.9494,0.9501,0.9559,0.9541,0.9554,0.961,0.9618,0.9656,0.9688,0.97,0.9738,0.9768,0.9782,0.979,0.9806,0.9785,0.9797,0.977,0.9759,0.975,0.9746,0.9737,0.9726,0.9848,0.9848,0.9848,0,0,0.945,0.9488,0.9488,0.9524,0.9551,0.9556,0.9619,0.9623,0.9628,0.9701,0.9701,0.9729,0.9767,0.9754,0.9751,0.9776,0.9715,0.9744,0.9737,0.9738,0.9731,0.9719,0.9709,0.9844,0.9845,0.9845,0,0,0.9373,0.9402,0.939,0.9415,0.9454,0.9492,0.9489,0.9539,0.9561,0.9562,0.9617,0.9624,0.9647,0.9671,0.9686,0.9617,0.9659,0.9621,0.9566,0.9556,0.9546,0.9538,0.9514,0.9504,0.9616,0.9616,0.9616,0,0.9313,0.9324,0.9379,0.9379,0.9393,0.9459,0.9448,0.947,0.9512,0.9521,0.9547,0.9578,0.9607,0.9602,0.9585,0.9595,0.9594,0.9616,0.9543,0.9535,0.9529,0.9506,0.9497,0.9611,0.9612,0.9612,0.9613,0,0.9249,0.9255,0.9241,0.928,0.9293,0.9287,0.9341,0.9347,0.9383,0.9417,0.9417,0.9455,0.948,0.9482,0.9517,0.9481,0.9495,0.9531,0.9579,0.9511,0.9491,0.9483,0.9604,0.9606,0.9608,0.9609,0,0,0.9118,0.9187,0.9181,0.92,0.9247,0.9254,0.925,0.9275,0.9279,0.9306,0.9305,0.9322,0.9357,0.9374,0.9412,0.9403,0.9346,0.9441,0.9443,0.9422,0.931,0.9282,0.9271,0.9374,0.9373,0.9372,0.9306,0,0.905,0.9049,0.9098,0.9083,0.909,0.9153,0.915,0.9179,0.9211,0.9221,0.9257,0.9268,0.9312,0.9323,0.9317,0.9354,0.9325,0.936,0.9374,0.9374,0.9363,0.9261,0.9232,0.9169,0.9299,0.9298,0.9297,0,0.897,0.8992,0.8978,0.9026,0.9031,0.9027,0.9054,0.9063,0.9097,0.9121,0.9139,0.9183,0.9183,0.9228,0.923,0.9252,0.9261,0.928,0.9279,0.9283,0.9332,0.9262,0.915,0.914,0.9285,0.9286,0.9287,0,0.8877,0.8902,0.8897,0.8911,0.8967,0.8963,0.8987,0.9023,0.9034,0.9057,0.9065,0.9087,0.91,0.9116,0.9164,0.9192,0.916,0.9209,0.918,0.9179,0.9172,0.9171,0.9059,0.9176,0.9176,0.9176,0.9176,0,0.8796,0.8784,0.8856,0.8853,0.8842,0.8899,0.8887,0.8916,0.8948,0.8951,0.9007,0.9009,0.9073,0.9082,0.912,0.9116,0.9121,0.914,0.915,0.9135,0.9133,0.9142,0.9148,0.9174,0.9174,0.9175,0.9175,0,0.869,0.8737,0.8736,0.8789,0.8802,0.8791,0.8837,0.8836,0.8871,0.8875,0.8879,0.8934,0.8948,0.8998,0.9024,0.905,0.9033,0.9053,0.9022,0.9029,0.8997,0.9,0.8888,0.8876,0.8999,0.8998,0.8997,0,0.8635,0.8628,0.868,0.8686,0.8707,0.8716,0.8728,0.8783,0.8793,0.8831,0.8826,0.8844,0.8862,0.8881,0.8923,0.8944,0.8964,0.8924,0.8968,0.8953,0.8964,0.8964,0.8964,0.8914,0.8913,0.8911,0.891,0,0.8533,0.8557,0.8572,0.8594,0.8607,0.8627,0.8651,0.8653,0.8715,0.8723,0.8738,0.8751,0.8778,0.8795,0.8822,0.8847,0.8888,0.8896,0.8891,0.8875,0.8858,0.8867,0.8996,0.8898,0.89,0.8901,0.8901,0.8902,0.8452,0.8448,0.8484,0.8499,0.8522,0.8543,0.8545,0.858,0.8593,0.8619,0.8651,0.8662,0.8696,0.8736,0.8757,0.8767,0.879,0.8782,0.878,0.8777,0.877,0.8855,0.8772,0.8772,0.8772,0.8773,0.8773,0,0.8353,0.8379,0.8392,0.8424,0.8435,0.8473,0.8501,0.8508,0.8517,0.8545,0.8561,0.8578,0.8595,0.8638,0.8659,0.8658,0.8678,0.8662,0.8663,0.8668,0.8748,0.8751,0.8646,0.8646,0.8646,0.8646,0.8646,0.8646,0.8304,0.83,0.8327,0.8336,0.8362,0.8373,0.8386,0.8405,0.8428,0.8444,0.8459,0.8487,0.8521,0.8545,0.8562,0.8575,0.858,0.8558,0.8576,0.865,0.8662,0.8674,0.8677,0.8558,0.8558,0.8496,0.8495,0.8495]},{"header":{"parameterUnit":"m.s-1","parameterCategory":1,"la1":30.2991,"la2":30.254,"lo1":-89.0895,"lo2":-89.0444,"dy":0.0017,"dx":0.0017,"nx":28,"ny":28,"refTime":"2026-01-29T09:00:00:Z","depth":0,"parameterNumber":3,"parameterNumberName":"V-component_of_WINDS"},"data":[0,0,0,0,0,0,0,0,0,0,0,0,0,0,0,0,0,0,0,0,0,0,0,0,0,0,0,0,0,0,0,0,0,0,0,0,0,0,0,0,0,0,0,0,0,0,0,0,0,0,0,0,0,0,0,0,0,0,0.0814,0.0813,0,0.0733,0.0732,0.0731,0.0701,0.0701,0.0701,0.0702,0.0616,0.0614,0.0611,0,0,0,0,0,0,0,0,0,0,0,0,0,0.0938,0.0936,0.0814,0.0813,0.0812,0.0733,0.0732,0.0731,0.0701,0.0701,0.0701,0.0702,0.0617,0.0614,0.0611,0,0,0,0,0,0,0,0,0,0,0,0,0,0.0873,0.0935,0.0814,0.0787,0.0784,0.0734,0.0732,0.0731,0.0701,0.0701,0.0702,0.0702,0.0618,0.0614,0.0611,0.058,0,0,0.0599,0.0597,0,0,0,0,0,0,0,0,0.0877,0.0869,0.0792,0.0789,0.0785,0.0728,0.0745,0.068,0.0701,0.0732,0.0702,0.0702,0.0653,0.0646,0.063,0.0576,0.0572,0.0599,0.0596,0.0595,0.0594,0,0,0,0,0,0,0,0.0882,0.0872,0.0782,0.0791,0.0787,0.0778,0.077,0.0732,0.0691,0.073,0.0727,0.0718,0.0651,0.0634,0.0628,0.0571,0.0599,0.0596,0.0593,0.0592,0.0486,0.0486,0,0,0,0,0,0,0.0891,0.0876,0.0784,0.0779,0.0833,0.0776,0.0766,0.0746,0.0692,0.0684,0.0718,0.0717,0.064,0.0632,0.0625,0.0584,0.0595,0.0591,0.0589,0.0487,0.0486,0.0486,0,0,0,0,0,0,0.0894,0.0883,0.0788,0.0827,0.0814,0.0773,0.0751,0.0744,0.0727,0.0683,0.0675,0.0708,0.064,0.063,0.0591,0.0581,0.059,0.0586,0.0487,0.0487,0.0486,0.0504,0,0,0,0,0,0,0.0898,0.0884,0.0873,0.0827,0.0812,0.0756,0.075,0.0742,0.0721,0.0719,0.0672,0.0664,0.064,0.0597,0.0587,0.0576,0.0583,0.0488,0.0487,0.0486,0.0504,0.0504,0.0504,0,0,0,0,0,0.0902,0.0881,0.0873,0.0862,0.0797,0.0756,0.0747,0.072,0.072,0.0708,0.0679,0.0666,0.0584,0.0593,0.0582,0.057,0.0489,0.0487,0.0486,0.0504,0.0504,0.0504,0,0,0,0,0,0,0.0925,0.0874,0.0865,0.0828,0.0797,0.0751,0.0734,0.0721,0.0688,0.0688,0.0655,0.0644,0.0608,0.0585,0.0596,0.0536,0.0535,0.0532,0.0553,0.0552,0.0552,0.0558,0.058,0,0,0,0,0,0.0927,0.0898,0.0855,0.0826,0.0811,0.0776,0.0757,0.0739,0.0704,0.0691,0.066,0.0626,0.0593,0.0571,0.0538,0.0501,0.049,0.0487,0.0487,0.0487,0.0484,0.0462,0.046,0.0482,0.0482,0.0482,0,0,0.0928,0.0897,0.088,0.083,0.0804,0.0774,0.0765,0.0734,0.0711,0.0685,0.0647,0.0623,0.0583,0.0545,0.0527,0.0525,0.0475,0.0485,0.0486,0.0482,0.046,0.0458,0.0456,0.0481,0.0481,0.0481,0,0,0.0915,0.0889,0.0863,0.0837,0.0797,0.0774,0.0768,0.0724,0.0707,0.0668,0.0648,0.062,0.0564,0.0536,0.0515,0.0492,0.0478,0.0482,0.0481,0.046,0.0458,0.0456,0.0447,0.0444,0.0479,0.048,0.048,0,0.0922,0.0878,0.0851,0.0821,0.0799,0.0776,0.0748,0.0723,0.0675,0.066,0.0659,0.0587,0.0559,0.0513,0.0508,0.0492,0.0482,0.0487,0.0461,0.0458,0.0456,0.0447,0.0444,0.048,0.048,0.048,0.048,0,0.0887,0.0857,0.084,0.0794,0.0771,0.0742,0.071,0.0689,0.0673,0.0649,0.0609,0.0575,0.0534,0.0522,0.0506,0.0474,0.0474,0.0467,0.0465,0.0456,0.0446,0.0443,0.0481,0.0481,0.0481,0.0481,0,0,0.0886,0.0827,0.0821,0.08,0.0755,0.073,0.07,0.0661,0.0643,0.0611,0.0584,0.0537,0.053,0.0506,0.0486,0.0468,0.0451,0.0463,0.0462,0.0461,0.0413,0.0418,0.0414,0.0442,0.0441,0.044,0.0416,0,0.0867,0.0814,0.0788,0.0745,0.0716,0.0694,0.0667,0.0636,0.0613,0.0584,0.0559,0.0525,0.052,0.0505,0.0486,0.0457,0.0441,0.0459,0.0415,0.0414,0.0425,0.041,0.0414,0.0393,0.0412,0.0412,0.0411,0,0.0838,0.0806,0.076,0.0718,0.0705,0.0682,0.0644,0.0617,0.0581,0.0566,0.0539,0.052,0.0486,0.0487,0.044,0.0453,0.0434,0.0417,0.0415,0.0409,0.0411,0.0402,0.0386,0.0382,0.0405,0.0406,0.0406,0,0.0841,0.0787,0.0752,0.0735,0.0685,0.0669,0.0648,0.0612,0.059,0.0557,0.0542,0.0505,0.0485,0.0456,0.0427,0.0431,0.0382,0.0381,0.0367,0.0368,0.0357,0.0358,0.0336,0.0346,0.0347,0.0347,0.0347,0,0.0822,0.0794,0.0753,0.0732,0.07,0.0671,0.064,0.0617,0.0585,0.0558,0.0536,0.0511,0.0475,0.0445,0.0423,0.0386,0.0377,0.0363,0.0357,0.0364,0.0366,0.0351,0.0351,0.0346,0.0346,0.0346,0.0346,0,0.0819,0.0791,0.0752,0.0708,0.0697,0.0675,0.0637,0.0615,0.0592,0.0557,0.0548,0.051,0.0474,0.0442,0.0394,0.0379,0.0341,0.0334,0.0353,0.035,0.0338,0.0339,0.0305,0.0298,0.0314,0.0314,0.0314,0,0.0809,0.0787,0.0742,0.0723,0.0702,0.0671,0.0649,0.0619,0.0597,0.0554,0.0537,0.0499,0.0467,0.041,0.0377,0.034,0.0332,0.0322,0.0326,0.0334,0.0331,0.0332,0.0329,0.0322,0.0322,0.0322,0.0322,0,0.0792,0.0779,0.0749,0.0713,0.0688,0.0658,0.0627,0.0613,0.0577,0.0553,0.0516,0.0491,0.0442,0.0405,0.0364,0.034,0.0325,0.0321,0.0316,0.0323,0.0334,0.0327,0.0352,0.0322,0.0322,0.0322,0.0322,0.0322,0.0785,0.0765,0.073,0.0696,0.067,0.0642,0.0619,0.0593,0.0562,0.0521,0.0505,0.0467,0.043,0.0374,0.0351,0.032,0.0317,0.031,0.0308,0.0306,0.0307,0.034,0.0312,0.0312,0.0312,0.0312,0.0312,0,0.0767,0.0743,0.0713,0.0671,0.0645,0.0634,0.0599,0.0577,0.0545,0.0513,0.0482,0.0439,0.0402,0.0367,0.0329,0.0311,0.0302,0.0301,0.0302,0.0296,0.0312,0.032,0.0309,0.0309,0.0309,0.0309,0.0309,0.0309,0.0754,0.0719,0.0702,0.0654,0.063,0.0593,0.0574,0.0548,0.0522,0.0476,0.0446,0.0424,0.039,0.0349,0.0314,0.0305,0.0291,0.0292,0.028,0.0295,0.0296,0.0296,0.0304,0.0289,0.0289,0.0267,0.0267,0.0267]}]]